FW2458 Weather Reports


time (UTC)temp
F
wind
direction
speed
knots
gust
knots
rain 1hr
in
rain 24hr
in
rain mn
in
humidity
%
barometer
mb
20260506002505 75 220 0.9 7.0 0.00 0.00 0.00 43 1008.6
20260506001954 75 38 0.9 7.0 0.00 0.00 0.00 43 1008.5
20260506001449 75 210 0.9 6.1 0.00 0.00 0.00 43 1008.3
20260506000951 76 54 0.9 3.5 0.00 0.00 0.00 41 1008.3
20260506000432 76 69 0.9 3.5 0.00 0.00 0.00 40 1008.4
20260505235927 76 96 0.9 5.2 0.00 0.00 0.00 41 1008.3
20260505235420 77 97 0.9 5.2 0.00 0.00 0.00 39 1008.3
20260505235138 77 225 1.7 7.0 0.00 0.00 0.00 38 1008.3
20260505234404 78 62 1.7 7.0 0.00 0.00 0.00 38 1008.3
20260505233859 78 51 1.7 7.0 0.00 0.00 0.00 38 1008.3
20260505233349 78 178 1.7 7.0 0.00 0.00 0.00 37 1008.2
20260505233328 78 66 1.7 6.1 0.00 0.00 0.00 37 1008.1
20260505232336 78 145 1.7 6.1 0.00 0.00 0.00 37 1008.1
20260505231827 78 342 1.7 6.1 0.00 0.00 0.00 36 1008.1
20260505231320 78 150 1.7 6.1 0.00 0.00 0.00 37 1008.0
20260505231035 78 169 1.7 8.7 0.00 0.00 0.00 36 1008.0
20260505230305 79 237 1.7 8.7 0.00 0.00 0.00 35 1008.0
20260505225759 79 40 2.6 9.6 0.00 0.00 0.00 35 1007.9
20260505225254 79 171 1.7 9.6 0.00 0.00 0.00 34 1007.6
20260505224743 80 37 1.7 7.8 0.00 0.00 0.00 35 1007.8
20260505224236 80 178 1.7 9.6 0.00 0.00 0.00 34 1007.7
20260505223732 80 233 1.7 9.6 0.00 0.00 0.00 34 1007.7
20260505223221 80 192 2.6 8.7 0.00 0.00 0.00 34 1007.6
20260505222714 80 205 2.6 8.7 0.00 0.00 0.00 34 1007.6
20260505222211 80 158 2.6 9.6 0.00 0.00 0.00 33 1007.6
20260505221659 80 39 2.6 9.6 0.00 0.00 0.00 33 1007.6
20260505221153 81 48 2.6 9.6 0.00 0.00 0.00 33 1007.5
20260505220652 80 282 2.6 9.6 0.00 0.00 0.00 33 1007.4
20260505220149 81 211 2.6 7.0 0.00 0.00 0.00 34 1007.5
20260505215649 81 35 2.6 7.0 0.00 0.00 0.00 34 1007.5
20260505215149 81 88 2.6 8.7 0.00 0.00 0.00 35 1007.3
20260505214646 80 147 2.6 8.7 0.00 0.00 0.00 34 1007.2
20260505214411 80 61 2.6 8.7 0.00 0.00 0.00 34 1007.2
20260505213909 81 53 2.6 10.4 0.00 0.00 0.00 34 1007.3
20260505213147 81 105 2.6 10.4 0.00 0.00 0.00 35 1007.3
20260505212646 81 161 2.6 11.3 0.00 0.00 0.00 35 1007.0
20260505212146 81 42 3.5 12.2 0.00 0.00 0.00 35 1006.8
20260505211646 81 326 3.5 12.2 0.00 0.00 0.00 35 1006.7
20260505211405 81 237 3.5 10.4 0.00 0.00 0.00 33 1007.0
20260505210649 82 182 3.5 9.6 0.00 0.00 0.00 32 1007.1
20260505210201 82 34 3.5 13.9 0.00 0.00 0.00 33 1007.0
20260505205643 82 57 4.3 13.9 0.00 0.00 0.00 33 1006.9
20260505205146 82 217 3.5 13.0 0.00 0.00 0.00 33 1006.8
20260505204644 82 62 2.6 13.0 0.00 0.00 0.00 33 1007.0
20260505204145 82 179 3.5 13.0 0.00 0.00 0.00 34 1007.1
20260505203646 81 57 2.6 13.0 0.00 0.00 0.00 34 1007.1
20260505203143 81 58 2.6 11.3 0.00 0.00 0.00 36 1007.1
20260505202641 81 66 3.5 15.6 0.00 0.00 0.00 34 1007.0
20260505202405 82 24 3.5 15.6 0.00 0.00 0.00 36 1007.1
20260505201640 82 217 3.5 15.6 0.00 0.00 0.00 35 1007.1
20260505201140 82 80 3.5 15.6 0.00 0.00 0.00 33 1007.3
20260505200640 82 247 3.5 11.3 0.00 0.00 0.00 34 1007.2
20260505200143 82 242 3.5 11.3 0.00 0.00 0.00 36 1007.1
20260505195640 82 346 2.6 11.3 0.00 0.00 0.00 36 1007.2
20260505195403 83 52 2.6 15.6 0.00 0.00 0.00 34 1007.3
20260505194641 83 182 1.7 15.6 0.00 0.00 0.00 35 1007.2
20260505194627 83 182 2.6 15.6 0.00 0.00 0.00 36 1007.3
20260505193640 83 0 2.6 15.6 0.00 0.00 0.00 34 1007.3
20260505193400 83 51 2.6 16.5 0.00 0.00 0.00 34 1007.4
20260505192640 83 82 3.5 16.5 0.00 0.00 0.00 36 1007.6
20260505192141 83 242 3.5 16.5 0.00 0.00 0.00 35 1007.7
20260505191640 83 286 3.5 16.5 0.00 0.00 0.00 36 1007.7
20260505191406 83 56 3.5 9.6 0.00 0.00 0.00 35 1007.7
20260505190640 83 192 4.3 9.6 0.00 0.00 0.00 34 1007.8
20260505190141 83 275 4.3 16.5 0.00 0.00 0.00 37 1007.8
20260505185640 83 344 3.5 16.5 0.00 0.00 0.00 35 1007.9
20260505185141 83 46 3.5 16.5 0.00 0.00 0.00 37 1007.9
20260505184910 84 144 2.6 16.5 0.00 0.00 0.00 36 1008.1
20260505184140 83 88 2.6 10.4 0.00 0.00 0.00 36 1008.1
20260505183640 83 90 2.6 8.7 0.00 0.00 0.00 38 1008.2
20260505183141 83 114 1.7 7.8 0.00 0.00 0.00 38 1008.4
20260505182641 83 188 2.6 6.1 0.00 0.00 0.00 40 1008.3
20260505182141 83 94 2.6 7.8 0.00 0.00 0.00 38 1008.4
20260505181902 83 5 2.6 8.7 0.00 0.00 0.00 41 1008.3
20260505181140 83 28 2.6 8.7 0.00 0.00 0.00 36 1008.4
20260505180641 83 194 2.6 7.8 0.00 0.00 0.00 41 1008.5
20260505180140 82 250 2.6 9.6 0.00 0.00 0.00 42 1008.6
20260505175638 83 211 2.6 9.6 0.00 0.00 0.00 43 1008.6
20260505175138 83 90 2.6 7.0 0.00 0.00 0.00 40 1008.7
20260505174906 83 32 2.6 7.0 0.00 0.00 0.00 43 1008.6
20260505174138 83 213 1.7 7.0 0.00 0.00 0.00 41 1008.7
20260505173639 83 215 1.7 7.0 0.00 0.00 0.00 43 1008.8
20260505173139 83 251 1.7 7.0 0.00 0.00 0.00 44 1008.9
20260505172858 83 220 1.7 6.1 0.00 0.00 0.00 43 1008.9
20260505172137 83 128 1.7 6.1 0.00 0.00 0.00 41 1009.0
20260505171906 83 60 1.7 6.1 0.00 0.00 0.00 44 1009.0
20260505171134 83 198 1.7 12.2 0.00 0.00 0.00 45 1009.0
20260505170628 82 5 1.7 12.2 0.00 0.00 0.00 45 1009.0
20260505170119 82 38 1.7 12.2 0.00 0.00 0.00 46 1009.0
20260505165612 82 229 1.7 12.2 0.00 0.00 0.00 44 1009.1
20260505165113 82 202 1.7 8.7 0.00 0.00 0.00 45 1009.3
20260505164834 81 38 1.7 7.8 0.00 0.00 0.00 45 1009.4
20260505164112 81 271 1.7 6.1 0.00 0.00 0.00 45 1009.5
20260505163608 81 169 2.6 9.6 0.00 0.00 0.00 45 1009.5
20260505163342 81 58 1.7 9.6 0.00 0.00 0.00 51 1009.6
20260505162608 80 56 1.7 9.6 0.00 0.00 0.00 46 1009.6
20260505162107 80 237 1.7 9.6 0.00 0.00 0.00 47 1009.7
20260505161604 80 53 2.6 7.8 0.00 0.00 0.00 47 1009.7
20260505161118 80 132 1.7 7.8 0.00 0.00 0.00 46 1009.7
20260505160605 80 209 1.7 7.0 0.00 0.00 0.00 47 1009.7
20260505160338 79 339 1.7 7.0 0.00 0.00 0.00 47 1009.8
20260505153046 77 142 1.7 7.0 0.00 0.00 0.00 50 1010.2
20260505152538 77 71 1.7 7.0 0.00 0.00 0.00 53 1010.2
20260505152027 77 108 1.7 7.0 0.00 0.00 0.00 51 1010.2
20260505151533 76 298 1.7 7.0 0.00 0.00 0.00 54 1010.3
20260505151014 76 66 1.7 5.2 0.00 0.00 0.00 54 1010.2
20260505150504 76 210 1.7 7.8 0.00 0.00 0.00 52 1010.2
20260505150439 75 96 1.7 7.8 0.00 0.00 0.00 53 1010.2
20260505140336 73 321 1.7 7.8 0.00 0.00 0.00 56 1010.8
20260505130208 68 134 0.9 4.3 0.00 0.00 0.00 67 1010.7
20260505124646 67 164 0.9 3.5 0.00 0.00 0.00 70 1010.3
20260505124140 66 78 0.9 2.6 0.00 0.00 0.00 70 1010.3
20260505123634 65 167 0.9 2.6 0.00 0.00 0.00 73 1010.3
20260505123351 64 168 0.0 3.5 0.00 0.00 0.00 74 1010.2
20260505123059 64 158 0.0 1.7 0.00 0.00 0.00 75 1010.5
20260505122112 62 198 0.0 2.6 0.00 0.00 0.00 77 1010.5
20260505121602 61 194 0.0 2.6 0.00 0.00 0.00 79 1010.4
20260505121056 60 180 0.0 2.6 0.00 0.00 0.00 81 1010.5
20260505120550 59 175 0.0 2.6 0.00 0.00 0.00 82 1010.7
20260505120258 58 175 0.0 2.6 0.00 0.00 0.00 84 1010.7
20260505115547 57 240 0.0 2.6 0.00 0.00 0.00 85 1010.7
20260505115026 57 259 0.0 1.7 0.00 0.00 0.00 86 1010.7
20260505114526 56 261 0.0 3.5 0.00 0.00 0.00 85 1010.7
20260505114029 56 260 0.9 3.5 0.00 0.00 0.00 86 1010.7
20260505113753 56 262 0.9 3.5 0.00 0.00 0.00 86 1010.6
20260505113027 55 42 0.0 3.5 0.00 0.00 0.00 86 1010.6
20260505112526 55 140 0.0 0.9 0.00 0.00 0.00 87 1010.6
20260505112024 55 193 0.0 1.7 0.00 0.00 0.00 88 1010.4
20260505111535 55 193 0.0 1.7 0.00 0.00 0.00 88 1010.4
20260505111021 54 193 0.0 1.7 0.00 0.00 0.00 88 1010.3
20260505110532 54 193 0.0 1.7 0.00 0.00 0.00 89 1010.2
20260505102001 51 193 0.0 0.0 0.00 0.00 0.00 89 1010.5
20260505101459 50 194 0.0 0.0 0.00 0.00 0.00 89 1010.6
20260505100959 50 194 0.0 0.0 0.00 0.00 0.00 89 1010.3
20260505100719 50 194 0.0 0.0 0.00 0.00 0.00 89 1010.2
20260505100220 49 194 0.0 0.0 0.00 0.00 0.00 89 1010.1
20260505095456 49 194 0.0 0.0 0.00 0.00 0.00 88 1010.2
20260505094956 49 194 0.0 0.0 0.00 0.00 0.00 87 1010.1
20260505094507 49 194 0.0 0.0 0.00 0.00 0.00 87 1010.1
20260505093951 49 194 0.0 0.0 0.00 0.00 0.00 87 1010.0
20260505093450 49 194 0.0 0.0 0.00 0.00 0.00 86 1010.1
20260505092948 49 194 0.0 0.0 0.00 0.00 0.00 85 1010.0
20260505092446 50 194 0.0 0.0 0.00 0.00 0.00 85 1009.8
20260505091945 50 194 0.0 0.0 0.00 0.00 0.00 85 1009.9
20260505091443 50 194 0.0 0.0 0.00 0.00 0.00 86 1009.8
20260505090944 50 194 0.0 0.0 0.00 0.00 0.00 86 1009.8
20260505090445 51 194 0.0 0.0 0.00 0.00 0.00 86 1009.7
20260505085939 50 194 0.0 0.0 0.00 0.00 0.00 86 1009.7
20260505085435 50 194 0.0 0.0 0.00 0.00 0.00 86 1009.6
20260505085157 50 194 0.0 0.0 0.00 0.00 0.00 86 1009.6
20260505084433 50 194 0.0 0.0 0.00 0.00 0.00 86 1009.6
20260505083931 50 194 0.0 0.0 0.00 0.00 0.00 86 1009.7
20260505083429 50 194 0.0 0.0 0.00 0.00 0.00 86 1009.8
20260505082928 50 194 0.0 0.0 0.00 0.00 0.00 86 1009.8
20260505082425 50 194 0.0 0.0 0.00 0.00 0.00 85 1009.7
20260505081932 50 194 0.0 0.0 0.00 0.00 0.00 82 1009.7
20260505081927 50 194 0.0 0.0 0.00 0.00 0.00 84 1009.7
20260505080925 51 194 0.0 0.0 0.00 0.00 0.00 82 1009.7
20260505080425 51 194 0.0 0.0 0.00 0.00 0.00 82 1009.7
20260505075926 51 194 0.0 0.0 0.00 0.00 0.00 82 1009.7
20260505075426 52 194 0.0 0.0 0.00 0.00 0.00 82 1009.7
20260505074926 52 194 0.0 0.0 0.00 0.00 0.00 82 1009.7
20260505074426 52 194 0.0 0.0 0.00 0.00 0.00 83 1009.7
20260505073925 52 194 0.0 0.0 0.00 0.00 0.00 83 1009.7
20260505073425 52 194 0.0 0.0 0.00 0.00 0.00 83 1009.7
20260505072925 51 194 0.0 0.0 0.00 0.00 0.00 83 1009.6
20260505072425 51 194 0.0 0.0 0.00 0.00 0.00 83 1009.6
20260505071927 51 194 0.0 0.0 0.00 0.00 0.00 83 1009.6
20260505071423 51 194 0.0 0.0 0.00 0.00 0.00 83 1009.7
20260505070922 51 194 0.0 0.0 0.00 0.00 0.00 83 1009.6
20260505070640 51 194 0.0 0.0 0.00 0.00 0.00 83 1009.6
20260505065922 51 194 0.0 0.0 0.00 0.00 0.00 83 1009.6
20260505065423 51 194 0.0 0.0 0.00 0.00 0.00 82 1009.7
20260505065144 51 194 0.0 0.0 0.00 0.00 0.00 82 1009.8
20260505064647 51 194 0.0 0.0 0.00 0.00 0.00 81 1009.7
20260505063922 51 194 0.0 0.0 0.00 0.00 0.00 81 1009.8
20260505063420 51 194 0.0 0.0 0.00 0.00 0.00 80 1009.7
20260505062921 51 194 0.0 0.0 0.00 0.00 0.00 79 1009.8
20260505062422 51 194 0.0 0.0 0.00 0.00 0.00 79 1009.8
20260505061922 52 194 0.0 0.0 0.00 0.00 0.00 79 1009.9
20260505061421 52 194 0.0 0.0 0.00 0.00 0.00 79 1009.9
20260505060921 52 194 0.0 0.0 0.00 0.00 0.00 80 1009.8
20260505060422 52 194 0.0 0.0 0.00 0.00 0.00 80 1009.8
20260505055922 52 194 0.0 0.0 0.00 0.00 0.00 79 1009.9
20260505055417 52 194 0.0 0.0 0.00 0.00 0.00 78 1009.9
20260505054917 52 194 0.0 0.0 0.00 0.00 0.00 78 1009.9
20260505054422 52 194 0.0 0.0 0.00 0.00 0.00 78 1010.0
20260505053918 52 194 0.0 0.0 0.00 0.00 0.00 78 1009.9
20260505053414 52 194 0.0 0.0 0.00 0.00 0.00 78 1010.0
20260505052913 52 194 0.0 0.0 0.00 0.00 0.00 78 1010.1
20260505052412 51 194 0.0 0.0 0.00 0.00 0.00 78 1010.1
20260505051910 51 194 0.0 0.0 0.00 0.00 0.00 78 1010.2
20260505051407 51 194 0.0 0.0 0.00 0.00 0.00 78 1010.1
20260505050906 51 194 0.0 0.0 0.00 0.00 0.00 78 1010.2
20260505050403 51 194 0.0 0.0 0.00 0.00 0.00 77 1010.2
20260505041434 53 194 0.0 0.0 0.00 0.00 0.00 72 1010.4
20260505040342 53 194 0.0 0.0 0.00 0.00 0.00 71 1010.4
20260505040109 53 194 0.0 0.0 0.00 0.00 0.00 71 1010.3
20260505035341 53 194 0.0 0.0 0.00 0.00 0.00 71 1010.4
20260505035110 53 194 0.0 0.0 0.00 0.00 0.00 71 1010.3
20260505034832 53 194 0.0 0.0 0.00 0.00 0.00 71 1010.4
20260505034506 53 194 0.0 0.0 0.00 0.00 0.00 70 1010.5
20260505033341 53 194 0.0 0.0 0.00 0.00 0.00 70 1010.5
20260505033107 53 194 0.0 0.0 0.00 0.00 0.00 69 1010.6
20260505032342 54 194 0.0 0.0 0.00 0.00 0.00 69 1010.5
20260505031843 54 194 0.0 0.0 0.00 0.00 0.00 68 1010.5
20260505031337 54 194 0.0 0.0 0.00 0.00 0.00 67 1010.6
20260505030831 55 194 0.0 0.0 0.00 0.00 0.00 66 1010.5
20260505030321 55 194 0.0 0.0 0.00 0.00 0.00 66 1010.5
20260505025815 55 194 0.0 0.0 0.00 0.00 0.00 66 1010.6
20260505025309 56 194 0.0 0.0 0.00 0.00 0.00 66 1010.6
20260505024759 56 194 0.0 0.0 0.00 0.00 0.00 65 1010.6
20260505024253 56 194 0.0 0.0 0.00 0.00 0.00 65 1010.6
20260505023747 56 194 0.0 0.0 0.00 0.00 0.00 65 1010.6
20260505023236 56 194 0.0 0.0 0.00 0.00 0.00 64 1010.7
20260505022731 57 194 0.0 0.0 0.00 0.00 0.00 63 1010.6
20260505022225 57 194 0.0 0.0 0.00 0.00 0.00 63 1010.6
20260505021714 57 194 0.0 0.0 0.00 0.00 0.00 63 1010.6
20260505021210 57 194 0.0 0.0 0.00 0.00 0.00 62 1010.6
20260505020702 57 194 0.0 0.0 0.00 0.00 0.00 61 1010.7
20260505020153 58 194 0.0 0.0 0.00 0.00 0.00 60 1010.7
20260505015647 58 194 0.0 0.0 0.00 0.00 0.00 59 1010.7
20260505015141 59 194 0.0 0.0 0.00 0.00 0.00 59 1010.5
20260505014859 59 194 0.0 0.0 0.00 0.00 0.00 59 1010.5
20260505014125 59 194 0.0 0.0 0.00 0.00 0.00 58 1010.5
20260505013619 60 194 0.0 0.0 0.00 0.00 0.00 58 1010.4
20260505013109 60 194 0.0 0.0 0.00 0.00 0.00 57 1010.5
20260505012603 60 194 0.0 0.0 0.00 0.00 0.00 55 1010.4
20260505012057 61 194 0.0 0.0 0.00 0.00 0.00 55 1010.3
20260505011547 61 194 0.0 0.0 0.00 0.00 0.00 54 1010.2
20260505011042 62 194 0.0 0.0 0.00 0.00 0.00 53 1010.2
20260505010535 62 194 0.0 0.0 0.00 0.00 0.00 53 1010.1
20260505010025 63 194 0.0 0.0 0.00 0.00 0.00 52 1010.0
20260505005518 63 194 0.0 0.0 0.00 0.00 0.00 51 1010.1
20260505005021 63 192 0.0 0.0 0.00 0.00 0.00 50 1009.9
20260505004503 64 192 0.0 0.9 0.00 0.00 0.00 50 1009.8
20260505003957 64 192 0.0 0.9 0.00 0.00 0.00 49 1009.8
20260505003451 65 192 0.0 0.9 0.00 0.00 0.00 48 1009.6
20260505002941 65 193 0.0 2.6 0.00 0.00 0.00 48 1009.7